Weather History for Rome Ciampino, Italy

Change the Weather History Date:

Monday, November 18, 2013

  Actual Average Record
Temperature  
Mean Temperature 57 °F -  
Max Temperature 66 °F 57 °F 68 °F (2003)
Min Temperature 48 °F 41 °F 33 °F (1998)
Degree Days  
Heating Degree Days 8    
Growing Degree Days 7 (Base 50)    
Moisture  
Dew Point 51 °F    
Average Humidity 80    
Maximum Humidity 100    
Minimum Humidity 59    
Precipitation  
Precipitation 0.00 in 0.16 in - ()
Sea Level Pressure  
Sea Level Pressure 29.89 in    
Wind  
Wind Speed 3 mph ()    
Max Wind Speed 21 mph    
Max Gust Speed 36 mph    
Visibility 6.2 miles    
Events Rain , Thunderstorm    
Averages and records for this station are not official NWS values.
T = Trace of Precipitation, MM = Missing Value Source: Averaged Metar Reports

Daily Weather History Graph

Daily Weather History Graph

Search for Another Location

Airport:

Trip Planner

Search our weather history database for the weather conditions in past years. The results will help you decide how hot, cold, wet, or windy it might be!

Date:

Astronomy

Nov. 18, 2013 Rise Set
Actual Time 7:02 AM CET 4:46 PM CET
Civil Twilight 6:32 AM CET 5:16 PM CET
Nautical Twilight 5:58 AM CET 5:50 PM CET
Astronomical Twilight 5:25 AM CET 6:23 PM CET
Moon 5:35 PM CET (11/18) 7:36 AM CET (11/18)
Length of Visible Light 10h 44m
Length of Day
9h 43m
Full, 99% of the Moon is Illuminated
Nov 18
Full
Nov 25
Last Quarter
Dec 3
New
Dec 9
First Quarter
Dec 17
Full

Hourly Weather History & Observations

Time (CET) Temp. Dew Point Humidity Pressure Visibility Wind Dir Wind Speed Gust Speed Precip Events Conditions
12:15 AM 51.8 °F 50.0 °F 94% 30.09 in 6.2 mi ENE 1.2 mph - N/A   Partly Cloudy
12:45 AM 51.8 °F 50.0 °F 94% 30.09 in 6.2 mi Calm Calm - N/A   Partly Cloudy
1:15 AM 51.8 °F 50.0 °F 94% 30.06 in 6.2 mi Calm Calm - N/A   Partly Cloudy
1:45 AM 51.8 °F 50.0 °F 94% 30.06 in 6.2 mi East 2.3 mph - N/A   Scattered Clouds
2:15 AM 51.8 °F 50.0 °F 94% 30.04 in 6.2 mi East 1.2 mph - N/A   Mostly Cloudy
2:45 AM 51.8 °F 50.0 °F 94% 30.04 in 6.2 mi Calm Calm - N/A   Mostly Cloudy
3:15 AM 53.6 °F 51.8 °F 94% 30.04 in 6.2 mi Calm Calm - N/A   Mostly Cloudy
3:45 AM 53.6 °F 51.8 °F 94% 30.04 in 6.2 mi Calm Calm - N/A   Mostly Cloudy
4:15 AM 51.8 °F 50.0 °F 94% 30.01 in 6.2 mi Calm Calm - N/A   Mostly Cloudy
4:45 AM 51.8 °F 50.0 °F 94% 30.01 in 6.2 mi Calm Calm - N/A   Scattered Clouds
5:15 AM 50.0 °F 48.2 °F 94% 29.98 in 6.2 mi Calm Calm - N/A   Mostly Cloudy
5:45 AM 48.2 °F 46.4 °F 93% 29.98 in - Calm Calm - N/A   Clear
6:15 AM 48.2 °F 46.4 °F 93% 29.98 in - Calm Calm - N/A   Clear
6:45 AM 48.2 °F 46.4 °F 93% 29.98 in - Calm Calm - N/A   Clear
7:15 AM 48.2 °F 48.2 °F 100% 29.98 in - ENE 2.3 mph - N/A   Clear
7:45 AM 50.0 °F 50.0 °F 100% 29.98 in - Calm Calm - N/A   Clear
8:15 AM 51.8 °F 51.8 °F 100% 29.95 in - East 1.2 mph - N/A   Clear
8:45 AM 53.6 °F 51.8 °F 94% 29.95 in - Calm Calm - N/A   Clear
9:15 AM 55.4 °F 53.6 °F 94% 29.95 in - Calm Calm - N/A   Clear
9:45 AM 57.2 °F 53.6 °F 88% 29.95 in - Calm Calm - N/A   Clear
10:15 AM 59.0 °F 53.6 °F 82% 29.95 in - Calm Calm - N/A   Clear
10:45 AM 60.8 °F 53.6 °F 77% 29.95 in - ENE 1.2 mph - N/A   Clear
11:15 AM 62.6 °F 53.6 °F 72% 29.92 in - NE 3.5 mph - N/A   Clear
11:45 AM 64.4 °F 53.6 °F 68% 29.89 in 6.2 mi SE 6.9 mph - N/A   Scattered Clouds
12:15 PM 64.4 °F 53.6 °F 68% 29.89 in 6.2 mi SE 9.2 mph - N/A   Scattered Clouds
12:45 PM 66.2 °F 53.6 °F 64% 29.89 in 6.2 mi SE 12.7 mph - N/A   Scattered Clouds
1:15 PM 64.4 °F 53.6 °F 68% 29.86 in 6.2 mi SE 12.7 mph - N/A   Scattered Clouds
1:45 PM 64.4 °F 53.6 °F 68% 29.86 in 6.2 mi SE 11.5 mph - N/A   Scattered Clouds
2:15 PM 64.4 °F 53.6 °F 68% 29.86 in 6.2 mi SE 9.2 mph - N/A   Scattered Clouds
2:45 PM 62.6 °F 51.8 °F 68% 29.83 in 6.2 mi East 6.9 mph - N/A   Mostly Cloudy
3:15 PM 62.6 °F 53.6 °F 72% 29.83 in 6.2 mi East 8.1 mph - N/A   Mostly Cloudy
3:45 PM 62.6 °F 53.6 °F 72% 29.83 in 6.2 mi East 5.8 mph - N/A   Mostly Cloudy
4:15 PM 62.6 °F 51.8 °F 68% 29.80 in 6.2 mi WSW 4.6 mph 19.6 mph N/A   Mostly Cloudy
4:45 PM 62.6 °F 50.0 °F 63% 29.80 in 6.2 mi ESE 12.7 mph - N/A   Mostly Cloudy
5:15 PM 60.8 °F 51.8 °F 72% 29.77 in 6.2 mi East 9.2 mph - N/A   Mostly Cloudy
5:45 PM 60.8 °F 51.8 °F 72% 29.77 in 6.2 mi East 9.2 mph - N/A   Mostly Cloudy
6:15 PM 60.8 °F 51.8 °F 72% 29.77 in 6.2 mi East 5.8 mph - N/A   Mostly Cloudy
6:45 PM 60.8 °F 51.8 °F 72% 29.77 in 6.2 mi ENE 8.1 mph - N/A   Mostly Cloudy
7:15 PM 60.8 °F 51.8 °F 72% 29.74 in 6.2 mi ENE 9.2 mph - N/A   Mostly Cloudy
7:45 PM 62.6 °F 51.8 °F 68% 29.74 in 6.2 mi East 8.1 mph - N/A   Mostly Cloudy
8:15 PM 62.6 °F 51.8 °F 68% 29.74 in 6.2 mi East 4.6 mph - N/A   Mostly Cloudy
8:45 PM 62.6 °F 51.8 °F 68% 29.74 in 6.2 mi ESE 11.5 mph 23.0 mph N/A   Mostly Cloudy
9:15 PM 62.6 °F 51.8 °F 68% 29.71 in 6.2 mi East 12.7 mph 31.1 mph N/A   Mostly Cloudy
9:45 PM 62.6 °F 51.8 °F 68% 29.71 in 6.2 mi East 10.4 mph 26.5 mph N/A   Mostly Cloudy
10:15 PM 62.6 °F 51.8 °F 68% 29.71 in 6.2 mi ENE 5.8 mph 18.4 mph N/A   Mostly Cloudy
10:45 PM 62.6 °F 50.0 °F 63% 29.71 in 6.2 mi SE 12.7 mph 26.5 mph N/A   Mostly Cloudy
11:15 PM 62.6 °F 50.0 °F 63% 29.68 in 6.2 mi SE 15.0 mph 32.2 mph N/A   Mostly Cloudy
11:45 PM 64.4 °F 50.0 °F 59% 29.68 in 6.2 mi SE 20.7 mph 35.7 mph N/A Rain , Thunderstorm Light Rain